Regional Weather Roundup
Issued by NWS

Home | Current Version | Previous Version | Text Only | Print | Product List | Glossary Off
Versions: 1 2 3 4 5 6 7 8 9 10 11 12 13 14 15 16 17 18 19 20 21 22 23 24 25 26 27 28 29 30 31 32 33 34 35 36 37 38 39 40 41 42 43 44 45 46 47 48 49 50

000
ASUS43 KBIS 290610
RWRND

NORTH DAKOTA REGIONAL WEATHER ROUNDUP
NATIONAL WEATHER SERVICE BISMARCK ND
1200 AM CST MON DEC 29 2014

NOTE: "FAIR" INDICATES FEW OR NO CLOUDS BELOW 12,000 FEET WITH NO
SIGNIFICANT WEATHER AND/OR OBSTRUCTIONS TO VISIBILITY.


NDZ001>003-009>011-017-290700-
NORTHWEST NORTH DAKOTA

CITY           SKY/WX    TMP DP  RH WIND       PRES   REMARKS
WILLISTON      CLEAR     -6 -12  75 N10       30.51R WCI -24
6HR MIN TEMP:  -6; 6HR MAX TEMP:   7;

MINOT          PTCLDY    -9 -14  78 NW9       30.50R WCI -26
MINOT AFB      PTCLDY   -10 -15  80 N7        30.51R WCI -25
$$

NDZ018>021-031>035-040>046-290700-
SOUTHWEST NORTH DAKOTA

CITY           SKY/WX    TMP DP  RH WIND       PRES   REMARKS
BISMARCK       CLOUDY     1  -5  75 NE7       30.48R WCI -12
6HR MIN TEMP:   1; 6HR MAX TEMP:   6; 6HR PCP: TRACE;

DICKINSON      CLOUDY     5   0  79 NE10      30.35R WCI -10
GARRISON         N/A     -5 -10  79 N5        30.47R WCI -16
6HR MIN TEMP:  -5; 6HR MAX TEMP:   4;

HETTINGER ARPT LGT SNOW   6   1  80 NE16      30.32R WCI -12
$$

NDZ004>008-012>016-024-026-027-054-290700-
NORTHEAST NORTH DAKOTA

CITY           SKY/WX    TMP DP  RH WIND       PRES   REMARKS
GRAND FORKS    PTCLDY    -7 -12  79 NW8       30.54R WCI -23
GRND FRKS AFB  PTCLDY    -7 -11  81 N8        30.54R WCI -23
DEVILS LAKE    PTCLDY    -8 -17  65 N9        30.48R WCI -25
$$

NDZ022-023-025-028>030-036>039-047>053-290700-
SOUTHEAST NORTH DAKOTA

CITY           SKY/WX    TMP DP  RH WIND       PRES   REMARKS
FARGO          CLEAR     -4 -11  72 N9        30.52R WCI -20
6HR MIN TEMP:  -4; 6HR MAX TEMP:   0;

JAMESTOWN      PTCLDY    -6 -11  79 N6        30.46R WCI -19
$$



USA.gov is the U.S. government's official web portal to all federal, state and local government web resources and services.